Weather History for Arlington, WA

Change the Weather History Date:

Saturday, January 12, 2013

  Actual Average Record
Temperature  
Mean Temperature 26 °F -  
Max Temperature 33 °F 41 °F 57 °F (2004)
Min Temperature 19 °F 32 °F 12 °F (2007)
Degree Days  
Heating Degree Days 39    
Moisture  
Dew Point 21 °F    
Average Humidity 86    
Maximum Humidity 100    
Minimum Humidity 60    
Precipitation  
Precipitation 0.00 in - - ()
Sea Level Pressure  
Sea Level Pressure 30.40 in    
Wind  
Wind Speed 0 mph (North)    
Max Wind Speed 0 mph    
Max Gust Speed -    
Visibility 8 miles    
Events      
Averages and records for this station are not official NWS values.
T = Trace of Precipitation, MM = Missing Value Source: NWS Daily Summary

Daily Weather History Graph

Daily Weather History Graph

Search for Another Location

Airport:

Trip Planner

Search our weather history database for the weather conditions in past years. The results will help you decide how hot, cold, wet, or windy it might be!

Date:

Astronomy

Jan. 12, 2013 Rise Set
Actual Time 7:55 AM PST 4:38 PM PST
Civil Twilight 7:20 AM PST 5:14 PM PST
Nautical Twilight 6:41 AM PST 5:53 PM PST
Astronomical Twilight 6:04 AM PST 6:30 PM PST
Moon 8:10 AM PST (1/12) 6:24 PM PST (1/12)
Length of Visible Light 9h 54m
Length of Day
8h 43m
New Moon, 2% of the Moon is Illuminated
Jan 12
New Moon
Jan 18
First Quarter
Jan 26
Full
Feb 3
Last Quarter
Feb 9
New

Hourly Weather History & Observations

Time (PST) Temp. Dew Point Humidity Pressure Visibility Wind Dir Wind Speed Gust Speed Precip Events Conditions
12:15 AM 23.0 °F 19.4 °F 86% 30.35 in 0.2 mi Calm Calm - N/A   Overcast
12:35 AM 23.0 °F 19.4 °F 86% 30.35 in 0.5 mi Calm Calm - N/A   Overcast
12:55 AM 23.0 °F 21.2 °F 93% 30.36 in 0.5 mi Calm Calm - N/A   Overcast
1:15 AM 23.0 °F 21.2 °F 93% 30.35 in 1.8 mi Calm Calm - N/A   Mostly Cloudy
1:35 AM 23.0 °F 19.4 °F 86% 30.36 in 6.0 mi Calm Calm - N/A   Partly Cloudy
1:55 AM 23.0 °F 19.4 °F 86% 30.36 in 3.0 mi Calm Calm - N/A   Clear
2:15 AM 21.2 °F 19.4 °F 93% 30.36 in 4.0 mi Calm Calm - N/A   Partly Cloudy
2:35 AM 21.2 °F 21.2 °F 100% 30.36 in 5.0 mi Calm Calm - N/A   Clear
2:55 AM 21.2 °F 19.4 °F 93% 30.36 in 9.0 mi Calm Calm - N/A   Clear
3:15 AM 21.2 °F 19.4 °F 93% 30.36 in 8.0 mi Calm Calm - N/A   Clear
3:35 AM 21.2 °F 17.6 °F 86% 30.36 in 9.0 mi Calm Calm - N/A   Clear
3:55 AM 21.2 °F 17.6 °F 86% 30.36 in 4.0 mi Calm Calm - N/A   Clear
4:15 AM 19.4 °F 15.8 °F 86% 30.36 in 10.0 mi Calm Calm - N/A   Clear
4:35 AM 21.2 °F 17.6 °F 86% 30.36 in 10.0 mi Calm Calm - N/A   Clear
4:55 AM 19.4 °F 17.6 °F 93% 30.36 in 10.0 mi Calm Calm - N/A   Clear
5:15 AM 21.2 °F 17.6 °F 86% 30.36 in 10.0 mi Calm Calm - N/A   Clear
5:35 AM 21.2 °F 17.6 °F 86% 30.36 in 10.0 mi Calm Calm - N/A   Clear
5:55 AM 21.2 °F 19.4 °F 93% 30.36 in 10.0 mi Calm Calm - N/A   Clear
6:15 AM 21.2 °F 17.6 °F 86% 30.36 in 10.0 mi Calm Calm - N/A   Clear
6:35 AM 21.2 °F 17.6 °F 86% 30.37 in 10.0 mi Calm Calm - N/A   Clear
6:55 AM 21.2 °F 17.6 °F 86% 30.37 in 9.0 mi Calm Calm - N/A   Clear
7:15 AM 21.2 °F 17.6 °F 86% 30.38 in 10.0 mi Calm Calm - N/A   Clear
7:35 AM 21.2 °F 17.6 °F 86% 30.39 in 6.0 mi Calm Calm - N/A   Clear
7:55 AM 21.2 °F 17.6 °F 86% 30.39 in 10.0 mi Calm Calm - N/A   Clear
8:15 AM 19.4 °F 17.6 °F 93% 30.40 in 1.8 mi Calm Calm - N/A   Clear
8:35 AM 19.4 °F 15.8 °F 86% 30.40 in 1.2 mi Calm Calm - N/A   Clear
8:55 AM 19.4 °F 17.6 °F 93% 30.41 in 4.0 mi Calm Calm - N/A   Clear
9:15 AM 21.2 °F 19.4 °F 93% 30.41 in 10.0 mi Calm Calm - N/A   Clear
9:55 AM 24.8 °F 23.0 °F 93% 30.42 in 10.0 mi Calm Calm - N/A   Clear
10:15 AM 26.6 °F 24.8 °F 93% 30.41 in 10.0 mi Calm Calm - N/A   Clear
10:35 AM 28.4 °F 26.6 °F 93% 30.41 in 10.0 mi Calm Calm - N/A   Clear
10:55 AM 28.4 °F 26.6 °F 93% 30.41 in 10.0 mi Calm Calm - N/A   Clear
11:15 AM 28.4 °F 26.6 °F 93% 30.41 in 10.0 mi Calm Calm - N/A   Clear
11:35 AM 28.4 °F 26.6 °F 93% 30.41 in 10.0 mi Calm Calm - N/A   Clear
11:55 AM 28.4 °F 26.6 °F 93% 30.41 in 10.0 mi Calm Calm - N/A   Clear
12:15 PM 30.2 °F 26.6 °F 86% 30.40 in 10.0 mi Calm Calm - N/A   Clear
12:35 PM 30.2 °F 26.6 °F 86% 30.40 in 10.0 mi Calm Calm - N/A   Clear
12:55 PM 32.0 °F 26.6 °F 80% 30.40 in 10.0 mi Calm Calm - N/A   Clear
1:15 PM 32.0 °F 24.8 °F 75% 30.41 in 10.0 mi Calm Calm - N/A   Clear
1:35 PM 33.8 °F 26.6 °F 75% 30.41 in 10.0 mi Calm Calm - N/A   Clear
1:55 PM 33.8 °F 24.8 °F 70% 30.41 in 10.0 mi Calm Calm - N/A   Clear
2:15 PM 33.8 °F 24.8 °F 70% 30.41 in 10.0 mi Calm Calm - N/A   Clear
2:35 PM 33.8 °F 24.8 °F 70% 30.41 in 10.0 mi Calm Calm - N/A   Clear
2:55 PM 33.8 °F 24.8 °F 70% 30.41 in 10.0 mi Calm Calm - N/A   Clear
3:15 PM 33.8 °F 23.0 °F 65% 30.41 in 10.0 mi Calm Calm - N/A   Clear
3:35 PM 33.8 °F 23.0 °F 65% 30.41 in 10.0 mi Calm Calm - N/A   Clear
3:55 PM 33.8 °F 21.2 °F 60% 30.41 in 10.0 mi Calm Calm - N/A   Clear
4:15 PM 30.2 °F 23.0 °F 75% 30.41 in 10.0 mi Calm Calm - N/A   Clear
4:35 PM 30.2 °F 23.0 °F 75% 30.41 in 10.0 mi Calm Calm - N/A   Clear
5:15 PM 28.4 °F 23.0 °F 80% 30.42 in 10.0 mi Calm Calm - N/A   Clear
5:35 PM 28.4 °F 23.0 °F 80% 30.41 in 10.0 mi Calm Calm - N/A   Clear
5:55 PM 26.6 °F 23.0 °F 86% 30.42 in 10.0 mi Calm Calm - N/A   Clear
6:15 PM 24.8 °F 21.2 °F 86% 30.43 in 10.0 mi Calm Calm - N/A   Clear
6:35 PM 24.8 °F 21.2 °F 86% 30.43 in 10.0 mi Calm Calm - N/A   Clear
6:55 PM 24.8 °F 21.2 °F 86% 30.43 in 10.0 mi Calm Calm - N/A   Clear
7:15 PM 23.0 °F 19.4 °F 86% 30.43 in 10.0 mi Calm Calm - N/A   Clear
7:35 PM 23.0 °F 21.2 °F 93% 30.43 in 10.0 mi Calm Calm - N/A   Clear
7:55 PM 23.0 °F 21.2 °F 93% 30.43 in 10.0 mi Calm Calm - N/A   Clear
8:15 PM 23.0 °F 19.4 °F 86% 30.43 in 8.0 mi Calm Calm - N/A   Clear
8:35 PM 21.2 °F 21.2 °F 100% 30.43 in 9.0 mi Calm Calm - N/A   Clear
8:55 PM 21.2 °F 19.4 °F 93% 30.43 in 5.0 mi Calm Calm - N/A   Clear
9:15 PM 21.2 °F 17.6 °F 86% 30.43 in 10.0 mi Calm Calm - N/A   Clear
9:35 PM 21.2 °F 19.4 °F 93% 30.44 in 8.0 mi Calm Calm - N/A   Clear
9:55 PM 21.2 °F 19.4 °F 93% 30.44 in 5.0 mi Calm Calm - N/A   Clear
10:15 PM 21.2 °F 19.4 °F 93% 30.45 in 7.0 mi Calm Calm - N/A   Clear
10:35 PM 21.2 °F 17.6 °F 86% 30.45 in 8.0 mi Calm Calm - N/A   Clear
10:55 PM 21.2 °F 19.4 °F 93% 30.46 in 10.0 mi Calm Calm - N/A   Clear
11:15 PM 21.2 °F 17.6 °F 86% 30.47 in 10.0 mi Calm Calm - N/A   Clear
11:35 PM 21.2 °F 19.4 °F 93% 30.47 in 10.0 mi Calm Calm - N/A   Clear
11:55 PM 21.2 °F 19.4 °F 93% 30.47 in 7.0 mi Calm Calm - N/A   Clear